Weather History for Krasnodar, Russia

Change the Weather History Date:

Friday, January 18, 2013

  Actual Average Record
Temperature  
Mean Temperature 48 °F -  
Max Temperature 59 °F - - ()
Min Temperature 37 °F - - ()
Degree Days  
Heating Degree Days 17    
Moisture  
Dew Point 37 °F    
Average Humidity 70    
Maximum Humidity 87    
Minimum Humidity 41    
Precipitation  
Precipitation 0.00 in 0.06 in - ()
Sea Level Pressure  
Sea Level Pressure 29.89 in    
Wind  
Wind Speed 8 mph ()    
Max Wind Speed 18 mph    
Max Gust Speed 25 mph    
Visibility 6.2 miles    
Events      
T = Trace of Precipitation, MM = Missing Value Source: Averaged Metar Reports

Daily Weather History Graph

Daily Weather History Graph

Search for Another Location

Airport:

Trip Planner

Search our weather history database for the weather conditions in past years. The results will help you decide how hot, cold, wet, or windy it might be!

Date:

Astronomy

Jan. 18, 2013 Rise Set
Actual Time 8:56 AM MSK 6:11 PM MSK
Civil Twilight 8:23 AM MSK 6:44 PM MSK
Nautical Twilight 7:47 AM MSK 7:20 PM MSK
Astronomical Twilight 7:12 AM MSK 7:55 PM MSK
Moon 12:01 PM MSK (1/18) 1:01 AM MSK (1/18)
Length of Visible Light 10h 20m
Length of Day
9h 15m
Waxing Crescent, 43% of the Moon is Illuminated
Jan 18
Waxing Crescent
Jan 19
First Quarter
Jan 27
Full
Feb 3
Last Quarter
Feb 10
New

Hourly Weather History & Observations

Time (MSK) Temp. Windchill Dew Point Humidity Pressure Visibility Wind Dir Wind Speed Gust Speed Precip Events Conditions
12:00 AM 41.0 °F 36.5 °F 35.6 °F 81% 29.86 in 6.2 mi South 6.7 mph - N/A   Mostly Cloudy
12:30 AM 41.0 °F 36.5 °F 37.4 °F 87% 29.89 in 6.2 mi South 6.7 mph - N/A   Mostly Cloudy
1:00 AM 42.8 °F 37.6 °F 37.4 °F 81% 29.89 in 6.2 mi South 8.9 mph - N/A   Mostly Cloudy
1:30 AM 41.0 °F 34.4 °F 37.4 °F 87% 29.89 in 6.2 mi SSW 11.2 mph 17.9 mph N/A   Mostly Cloudy
2:00 AM 41.0 °F 34.4 °F 37.4 °F 87% 29.89 in 6.2 mi SSW 11.2 mph 17.9 mph N/A   Mostly Cloudy
2:30 AM 42.8 °F 35.9 °F 37.4 °F 81% 29.89 in 6.2 mi South 13.4 mph - N/A   Mostly Cloudy
3:00 AM 42.8 °F 35.9 °F 37.4 °F 81% 29.89 in 6.2 mi South 13.4 mph - N/A   Mostly Cloudy
3:30 AM 41.0 °F 34.4 °F 37.4 °F 87% 29.89 in 6.2 mi South 11.2 mph - N/A   Mostly Cloudy
4:00 AM 41.0 °F 34.4 °F 37.4 °F 87% 29.89 in - South 11.2 mph - N/A   Clear
4:30 AM 41.0 °F 34.4 °F 37.4 °F 87% 29.89 in - South 11.2 mph - N/A   Clear
5:00 AM 41.0 °F 33.6 °F 37.4 °F 87% 29.89 in - South 13.4 mph 20.1 mph N/A   Clear
5:30 AM 41.0 °F 34.4 °F 37.4 °F 87% 29.92 in - SSW 11.2 mph - N/A   Clear
6:00 AM 42.8 °F 37.6 °F 37.4 °F 81% 29.89 in - SW 8.9 mph - N/A   Clear
6:30 AM 42.8 °F 38.7 °F 37.4 °F 81% 29.89 in - SW 6.7 mph - N/A   Clear
7:00 AM 41.0 °F 36.5 °F 37.4 °F 87% 29.92 in - SSW 6.7 mph - N/A   Clear
7:30 AM 41.0 °F 35.4 °F 37.4 °F 87% 29.92 in - SSW 8.9 mph - N/A   Clear
8:00 AM 41.0 °F 36.5 °F 35.6 °F 81% 29.92 in - South 6.7 mph - N/A   Clear
8:30 AM 41.0 °F 38.1 °F 37.4 °F 87% 29.92 in - SSW 4.5 mph - N/A   Clear
9:00 AM 42.8 °F - 37.4 °F 81% 29.92 in - Variable 2.2 mph - N/A   Clear
9:30 AM 37.4 °F 33.9 °F 33.8 °F 87% 29.95 in - SSE 4.5 mph - N/A   Clear
10:00 AM 41.0 °F 36.5 °F 37.4 °F 87% 29.95 in - SSW 6.7 mph - N/A   Clear
10:30 AM 44.6 °F 40.8 °F 39.2 °F 81% 29.95 in - South 6.7 mph - N/A   Clear
11:00 AM 48.2 °F - 39.2 °F 71% 29.95 in - SSW 6.7 mph - N/A   Clear
11:30 AM 51.8 °F - 39.2 °F 62% 29.95 in - SSW 8.9 mph - N/A   Clear
12:00 PM 53.6 °F - 39.2 °F 58% 29.92 in - SSW 8.9 mph - N/A   Clear
12:30 PM 55.4 °F - 37.4 °F 51% 29.92 in - SSW 8.9 mph 15.7 mph N/A   Clear
1:00 PM 57.2 °F - 35.6 °F 44% 29.92 in - SSW 11.2 mph - N/A   Clear
1:30 PM 59.0 °F - 35.6 °F 42% 29.92 in - SW 17.9 mph 24.6 mph N/A   Clear
2:00 PM 59.0 °F - 35.6 °F 42% 29.89 in - SW 15.7 mph 22.4 mph N/A   Clear
2:30 PM 57.2 °F - 35.6 °F 44% 29.89 in - SW 11.2 mph 17.9 mph N/A   Clear
3:00 PM 57.2 °F - 33.8 °F 41% 29.89 in - SW 11.2 mph 17.9 mph N/A   Clear
3:30 PM 55.4 °F - 33.8 °F 44% 29.89 in - SSW 11.2 mph 17.9 mph N/A   Clear
4:00 PM 57.2 °F - 35.6 °F 44% 29.89 in - SW 6.7 mph - N/A   Clear
4:30 PM 57.2 °F - 35.6 °F 44% 29.89 in - SW 6.7 mph - N/A   Clear
5:00 PM 55.4 °F - 35.6 °F 47% 29.86 in - South 4.5 mph - N/A   Clear
5:30 PM 51.8 °F - 35.6 °F 54% 29.86 in - Variable 2.2 mph - N/A   Clear
6:00 PM 50.0 °F - 37.4 °F 62% 29.86 in - Variable 2.2 mph - N/A   Clear
6:30 PM 48.2 °F - 37.4 °F 66% 29.86 in - ESE 4.5 mph - N/A   Clear
7:00 PM 48.2 °F - 39.2 °F 71% 29.86 in - East 6.7 mph - N/A   Clear
7:30 PM 50.0 °F - 37.4 °F 62% 29.86 in - ENE 8.9 mph - N/A   Clear
8:00 PM 50.0 °F - 35.6 °F 58% 29.86 in - East 8.9 mph - N/A   Clear
8:30 PM 50.0 °F - 35.6 °F 58% 29.86 in - ENE 6.7 mph - N/A   Clear
9:00 PM 46.4 °F 42.0 °F 35.6 °F 66% 29.86 in - East 8.9 mph - N/A   Clear
9:30 PM 46.4 °F 42.0 °F 37.4 °F 71% 29.86 in - East 8.9 mph - N/A   Clear
10:00 PM 44.6 °F 39.8 °F 35.6 °F 71% 29.86 in - East 8.9 mph - N/A   Clear
10:30 PM 44.6 °F 40.8 °F 35.6 °F 71% 29.86 in - East 6.7 mph - N/A   Clear
11:00 PM 42.8 °F - 35.6 °F 76% 29.86 in - Variable 2.2 mph - N/A   Clear
11:30 PM 42.8 °F 37.6 °F 35.6 °F 76% 29.86 in - East 8.9 mph - N/A   Clear